Tracking 29892 objects as of 21-Nov-2024
HD Live streaming from Space Station
objects crossing your sky now

STARLINK-3225

Track STARLINK-3225 now!
10-day predictions
STARLINK-3225 is classified as:


NORAD ID: 49737
Int'l Code: 2021-115P
Perigee: 546.0 km
Apogee: 547.8 km
Inclination: 53.2 °
Period: 95.4 minutes
Semi major axis: 6917 km
RCS: Unknown
Launch date: December 2, 2021
Source: United States (US)
Launch site: AIR FORCE EASTERN TEST RANGE (AFETR)
Your satellite tracking list
Your tracking list is empty




NASA's NSSDC Master Catalog

Two Line Element Set (TLE):
1 49737U 21115P   24325.85622005 -.00001752  00000-0 -92002-4 0  9998
2 49737  53.2160 116.2384 0001320 101.1018 259.0123 15.08835333165117
Source of the keplerian elements: AFSPC